"Period start","avg(HW err(1)/warn(2) (#))","avg(Visibility (m))","avg(Weather code (#))","avg(Precip intensity (mm/h))","min(HW err(1)/warn(2) (#))","max(HW err(1)/warn(2) (#))","std(HW err(1)/warn(2) (#))","med(HW err(1)/warn(2) (#))","min(Visibility (m))","max(Visibility (m))","std(Visibility (m))","med(Visibility (m))","min(Weather code (#))","max(Weather code (#))","std(Weather code (#))","med(Weather code (#))","min(Precip intensity (mm/h))","max(Precip intensity (mm/h))","std(Precip intensity (mm/h))","med(Precip intensity (mm/h))"
2013-09-15 00:00:00,2,3018,77,0.07,2,2,0,2,1576,5494,1442,2596,77,77,0,77,0.00,0.15,0.06,0.08
2013-09-15 00:10:00,2,3501,44,0.06,2,2,0,2,1724,7168,1893,2647,10,77,34,44,0.00,0.15,0.07,0.03
2013-09-15 00:20:00,2,11230,28,0.02,2,2,0,2,1878,31509,9296,8708,10,71,28,10,0.00,0.10,0.03,0.00
2013-09-15 00:30:00,2,5760,10,0.00,2,2,0,2,2285,16948,4064,4670,10,10,0,10,0.00,0.00,0.00,0.00
2013-09-15 00:40:00,2,3389,75,0.03,2,2,0,2,2109,4714,931,3084,71,77,3,77,0.00,0.05,0.03,0.03
2013-09-15 00:50:00,2,6666,39,0.00,2,2,0,2,2955,17479,3999,5885,10,77,23,41,0.00,0.00,0.00,0.00
2013-09-15 01:00:00,2,6863,10,0.00,2,2,0,2,2664,12399,3060,6099,10,10,0,10,0.00,0.00,0.00,0.00
2013-09-15 01:10:00,2,5172,16,0.03,2,2,0,2,1783,18945,4834,3204,10,41,12,10,0.00,0.20,0.06,0.00
2013-09-15 01:20:00,2,5704,70,0.04,2,2,0,2,2115,24668,6560,2803,41,77,14,77,0.00,0.10,0.04,0.05
2013-09-15 01:30:00,2,8255,48,0.02,2,2,0,2,2332,19859,6633,4091,10,77,31,71,0.00,0.10,0.04,0.00
2013-09-15 01:40:00,2,3376,56,0.04,2,2,0,2,2316,5676,1047,3051,10,77,30,77,0.00,0.10,0.04,0.05
2013-09-15 01:50:00,2,4910,29,0.02,2,2,0,2,2635,8661,1921,4372,10,41,15,41,0.00,0.10,0.03,0.00
2013-09-15 02:00:00,2,3213,70,0.06,2,2,0,2,2315,5472,989,2857,41,77,14,77,0.00,0.20,0.07,0.05
2013-09-15 02:10:00,2,4163,77,0.03,2,2,0,2,2463,8166,1557,3860,77,77,0,77,0.00,0.10,0.03,0.03
2013-09-15 02:20:00,2,4235,77,0.01,2,2,0,2,2999,5185,595,4251,77,77,0,77,0.00,0.05,0.02,0.00
2013-09-15 02:30:00,2,8184,42,0.01,2,2,0,2,2984,19682,4810,8456,10,77,21,41,0.00,0.05,0.02,0.00
2013-09-15 02:40:00,2,4089,45,0.03,2,2,0,2,2237,7292,1517,3862,41,77,11,41,0.00,0.10,0.04,0.00
2013-09-15 02:50:00,2,6308,23,0.01,2,2,0,2,2559,11939,3218,5232,10,77,26,10,0.00,0.05,0.02,0.00
2013-09-15 03:00:00,2,23707,9,0.00,2,2,0,2,4469,45804,12384,22260,0,10,3,10,0.00,0.00,0.00,0.00
2013-09-15 03:10:00,2,4774,7,0.00,2,2,0,2,2754,8678,1572,4616,0,10,5,10,0.00,0.00,0.00,0.00
2013-09-15 03:20:00,2,21783,10,0.00,2,2,0,2,3665,41759,11486,23454,10,10,0,10,0.00,0.00,0.00,0.00
2013-09-15 03:30:00,2,24368,2,0.00,2,2,0,2,7844,38712,9435,26013,0,10,4,0,0.00,0.00,0.00,0.00
2013-09-15 03:40:00,2,21081,0,0.00,2,2,0,2,7094,46031,15008,12439,0,0,0,0,0.00,0.00,0.00,0.00
2013-09-15 03:50:00,2,45373,0,0.00,2,2,0,2,24820,50000,7537,48842,0,0,0,0,0.00,0.00,0.00,0.00
2013-09-15 04:00:00,2,39792,0,0.00,2,2,0,2,28344,50000,8468,40322,0,0,0,0,0.00,0.00,0.00,0.00
2013-09-15 04:10:00,2,32186,0,0.00,2,2,0,2,12248,50000,15251,32919,0,0,0,0,0.00,0.00,0.00,0.00
2013-09-15 04:20:00,2,49757,0,0.00,2,2,0,2,48660,50000,489,50000,0,0,0,0,0.00,0.00,0.00,0.00
2013-09-15 04:30:00,2,49988,0,0.00,2,2,0,2,49877,50000,37,50000,0,0,0,0,0.00,0.00,0.00,0.00
2013-09-15 04:40:00,2,50000,0,0.00,2,2,0,2,50000,50000,0,50000,0,0,0,0,0.00,0.00,0.00,0.00
2013-09-15 04:50:00,2,49789,0,0.00,2,2,0,2,47886,50000,634,50000,0,0,0,0,0.00,0.00,0.00,0.00
2013-09-15 05:00:00,2,49762,0,0.00,2,2,0,2,47624,50000,713,50000,0,0,0,0,0.00,0.00,0.00,0.00
2013-09-15 05:10:00,2,50000,0,0.00,2,2,0,2,50000,50000,0,50000,0,0,0,0,0.00,0.00,0.00,0.00
2013-09-15 05:20:00,2,49905,0,0.00,2,2,0,2,49085,50000,273,50000,0,0,0,0,0.00,0.00,0.00,0.00
2013-09-15 05:30:00,2,49954,0,0.00,2,2,0,2,49640,50000,109,50000,0,0,0,0,0.00,0.00,0.00,0.00
2013-09-15 05:40:00,2,50000,0,0.00,2,2,0,2,50000,50000,0,50000,0,0,0,0,0.00,0.00,0.00,0.00
2013-09-15 05:50:00,2,49798,0,0.00,2,2,0,2,48293,50000,510,50000,0,0,0,0,0.00,0.00,0.00,0.00
2013-09-15 06:00:00,2,49688,0,0.00,2,2,0,2,46875,50000,938,50000,0,0,0,0,0.00,0.00,0.00,0.00
2013-09-15 06:10:00,2,50000,0,0.00,2,2,0,2,50000,50000,0,50000,0,0,0,0,0.00,0.00,0.00,0.00
2013-09-15 06:20:00,2,50000,0,0.00,2,2,0,2,50000,50000,0,50000,0,0,0,0,0.00,0.00,0.00,0.00
2013-09-15 06:30:00,2,49877,0,0.00,2,2,0,2,48769,50000,369,50000,0,0,0,0,0.00,0.00,0.00,0.00
2013-09-15 06:40:00,2,50000,0,0.00,2,2,0,2,50000,50000,0,50000,0,0,0,0,0.00,0.00,0.00,0.00
2013-09-15 06:50:00,2,49532,0,0.00,2,2,0,2,47377,50000,865,50000,0,0,0,0,0.00,0.00,0.00,0.00
2013-09-15 07:00:00,2,50000,0,0.00,2,2,0,2,50000,50000,0,50000,0,0,0,0,0.00,0.00,0.00,0.00
2013-09-15 07:10:00,2,50000,0,0.00,2,2,0,2,50000,50000,0,50000,0,0,0,0,0.00,0.00,0.00,0.00
2013-09-15 07:20:00,2,50000,0,0.00,2,2,0,2,50000,50000,0,50000,0,0,0,0,0.00,0.00,0.00,0.00
2013-09-15 07:30:00,2,50000,0,0.00,2,2,0,2,50000,50000,0,50000,0,0,0,0,0.00,0.00,0.00,0.00
2013-09-15 07:40:00,2,50000,0,0.00,2,2,0,2,50000,50000,0,50000,0,0,0,0,0.00,0.00,0.00,0.00
2013-09-15 07:50:00,2,49884,0,0.00,2,2,0,2,48972,50000,307,50000,0,0,0,0,0.00,0.00,0.00,0.00
2013-09-15 08:00:00,2,49790,0,0.00,2,2,0,2,47898,50000,631,50000,0,0,0,0,0.00,0.00,0.00,0.00
2013-09-15 08:10:00,2,48411,0,0.00,2,2,0,2,43211,50000,2326,50000,0,0,0,0,0.00,0.00,0.00,0.00
2013-09-15 08:20:00,2,49970,0,0.00,2,2,0,2,49702,50000,89,50000,0,0,0,0,0.00,0.00,0.00,0.00
2013-09-15 08:30:00,2,50000,0,0.00,2,2,0,2,50000,50000,0,50000,0,0,0,0,0.00,0.00,0.00,0.00
2013-09-15 08:40:00,2,49870,0,0.00,2,2,0,2,48705,50000,388,50000,0,0,0,0,0.00,0.00,0.00,0.00
2013-09-15 08:50:00,2,49834,0,0.00,2,2,0,2,48878,50000,356,50000,0,0,0,0,0.00,0.00,0.00,0.00
2013-09-15 09:00:00,2,49272,0,0.00,2,2,0,2,47617,50000,826,49620,0,0,0,0,0.00,0.00,0.00,0.00
2013-09-15 09:10:00,2,49766,0,0.00,2,2,0,2,48615,50000,478,50000,0,0,0,0,0.00,0.00,0.00,0.00
2013-09-15 09:20:00,2,50000,0,0.00,2,2,0,2,50000,50000,0,50000,0,0,0,0,0.00,0.00,0.00,0.00
2013-09-15 09:30:00,2,49902,0,0.00,2,2,0,2,49025,50000,292,50000,0,0,0,0,0.00,0.00,0.00,0.00
2013-09-15 09:40:00,2,50000,0,0.00,2,2,0,2,50000,50000,0,50000,0,0,0,0,0.00,0.00,0.00,0.00
2013-09-15 09:50:00,2,50000,0,0.00,2,2,0,2,50000,50000,0,50000,0,0,0,0,0.00,0.00,0.00,0.00
2013-09-15 10:00:00,2,49974,0,0.00,2,2,0,2,49740,50000,78,50000,0,0,0,0,0.00,0.00,0.00,0.00
2013-09-15 10:10:00,2,50000,0,0.00,2,2,0,2,50000,50000,0,50000,0,0,0,0,0.00,0.00,0.00,0.00
2013-09-15 10:20:00,2,50000,0,0.00,2,2,0,2,50000,50000,0,50000,0,0,0,0,0.00,0.00,0.00,0.00
2013-09-15 10:30:00,2,49792,0,0.00,2,2,0,2,47919,50000,624,50000,0,0,0,0,0.00,0.00,0.00,0.00
2013-09-15 10:40:00,2,50000,0,0.00,2,2,0,2,50000,50000,0,50000,0,0,0,0,0.00,0.00,0.00,0.00
2013-09-15 10:50:00,2,50000,0,0.00,2,2,0,2,50000,50000,0,50000,0,0,0,0,0.00,0.00,0.00,0.00
2013-09-15 11:00:00,2,50000,0,0.00,2,2,0,2,50000,50000,0,50000,0,0,0,0,0.00,0.00,0.00,0.00
2013-09-15 11:10:00,2,50000,0,0.00,2,2,0,2,50000,50000,0,50000,0,0,0,0,0.00,0.00,0.00,0.00
2013-09-15 11:20:00,2,50000,0,0.00,2,2,0,2,50000,50000,0,50000,0,0,0,0,0.00,0.00,0.00,0.00
2013-09-15 11:30:00,2,50000,0,0.00,2,2,0,2,50000,50000,0,50000,0,0,0,0,0.00,0.00,0.00,0.00
2013-09-15 11:40:00,2,50000,0,0.00,2,2,0,2,50000,50000,0,50000,0,0,0,0,0.00,0.00,0.00,0.00
2013-09-15 11:50:00,2,50000,0,0.00,2,2,0,2,50000,50000,0,50000,0,0,0,0,0.00,0.00,0.00,0.00
2013-09-15 12:00:00,2,50000,0,0.00,2,2,0,2,50000,50000,0,50000,0,0,0,0,0.00,0.00,0.00,0.00
2013-09-15 12:10:00,2,50000,0,0.00,2,2,0,2,50000,50000,0,50000,0,0,0,0,0.00,0.00,0.00,0.00
2013-09-15 12:20:00,2,50000,0,0.00,2,2,0,2,50000,50000,0,50000,0,0,0,0,0.00,0.00,0.00,0.00
2013-09-15 12:30:00,2,49978,0,0.00,2,2,0,2,49780,50000,66,50000,0,0,0,0,0.00,0.00,0.00,0.00
2013-09-15 12:40:00,2,50000,0,0.00,2,2,0,2,50000,50000,0,50000,0,0,0,0,0.00,0.00,0.00,0.00
2013-09-15 12:50:00,2,49841,0,0.00,2,2,0,2,48414,50000,476,50000,0,0,0,0,0.00,0.00,0.00,0.00
2013-09-15 13:00:00,2,50000,0,0.00,2,2,0,2,50000,50000,0,50000,0,0,0,0,0.00,0.00,0.00,0.00
2013-09-15 13:10:00,2,50000,0,0.00,2,2,0,2,50000,50000,0,50000,0,0,0,0,0.00,0.00,0.00,0.00
2013-09-15 13:20:00,2,50000,0,0.00,2,2,0,2,50000,50000,0,50000,0,0,0,0,0.00,0.00,0.00,0.00
2013-09-15 13:30:00,2,50000,0,0.00,2,2,0,2,50000,50000,0,50000,0,0,0,0,0.00,0.00,0.00,0.00
2013-09-15 13:40:00,2,50000,0,0.00,2,2,0,2,50000,50000,0,50000,0,0,0,0,0.00,0.00,0.00,0.00
2013-09-15 13:50:00,2,50000,0,0.00,2,2,0,2,50000,50000,0,50000,0,0,0,0,0.00,0.00,0.00,0.00
2013-09-15 14:00:00,2,50000,0,0.00,2,2,0,2,50000,50000,0,50000,0,0,0,0,0.00,0.00,0.00,0.00
2013-09-15 14:10:00,2,50000,0,0.00,2,2,0,2,50000,50000,0,50000,0,0,0,0,0.00,0.00,0.00,0.00
2013-09-15 14:20:00,2,50000,0,0.00,2,2,0,2,50000,50000,0,50000,0,0,0,0,0.00,0.00,0.00,0.00
2013-09-15 14:30:00,2,50000,0,0.00,2,2,0,2,50000,50000,0,50000,0,0,0,0,0.00,0.00,0.00,0.00
2013-09-15 14:40:00,2,50000,0,0.00,2,2,0,2,50000,50000,0,50000,0,0,0,0,0.00,0.00,0.00,0.00
2013-09-15 14:50:00,2,50000,0,0.00,2,2,0,2,50000,50000,0,50000,0,0,0,0,0.00,0.00,0.00,0.00
2013-09-15 15:00:00,2,50000,0,0.00,2,2,0,2,50000,50000,0,50000,0,0,0,0,0.00,0.00,0.00,0.00
2013-09-15 15:10:00,2,50000,0,0.00,2,2,0,2,50000,50000,0,50000,0,0,0,0,0.00,0.00,0.00,0.00
2013-09-15 15:20:00,2,50000,0,0.00,2,2,0,2,50000,50000,0,50000,0,0,0,0,0.00,0.00,0.00,0.00
2013-09-15 15:30:00,2,50000,0,0.00,2,2,0,2,50000,50000,0,50000,0,0,0,0,0.00,0.00,0.00,0.00
2013-09-15 15:40:00,2,50000,0,0.00,2,2,0,2,50000,50000,0,50000,0,0,0,0,0.00,0.00,0.00,0.00
2013-09-15 15:50:00,2,50000,0,0.00,2,2,0,2,50000,50000,0,50000,0,0,0,0,0.00,0.00,0.00,0.00
2013-09-15 16:00:00,2,50000,0,0.00,2,2,0,2,50000,50000,0,50000,0,0,0,0,0.00,0.00,0.00,0.00
2013-09-15 16:10:00,2,50000,0,0.00,2,2,0,2,50000,50000,0,50000,0,0,0,0,0.00,0.00,0.00,0.00
2013-09-15 16:20:00,2,50000,0,0.00,2,2,0,2,50000,50000,0,50000,0,0,0,0,0.00,0.00,0.00,0.00
2013-09-15 16:30:00,2,50000,0,0.00,2,2,0,2,50000,50000,0,50000,0,0,0,0,0.00,0.00,0.00,0.00
2013-09-15 16:40:00,2,50000,0,0.00,2,2,0,2,50000,50000,0,50000,0,0,0,0,0.00,0.00,0.00,0.00
2013-09-15 16:50:00,2,50000,0,0.00,2,2,0,2,50000,50000,0,50000,0,0,0,0,0.00,0.00,0.00,0.00
2013-09-15 17:00:00,2,50000,0,0.00,2,2,0,2,50000,50000,0,50000,0,0,0,0,0.00,0.00,0.00,0.00
2013-09-15 17:10:00,2,50000,0,0.00,2,2,0,2,50000,50000,0,50000,0,0,0,0,0.00,0.00,0.00,0.00
2013-09-15 17:20:00,2,50000,0,0.00,2,2,0,2,50000,50000,0,50000,0,0,0,0,0.00,0.00,0.00,0.00
2013-09-15 17:30:00,2,50000,0,0.00,2,2,0,2,50000,50000,0,50000,0,0,0,0,0.00,0.00,0.00,0.00
2013-09-15 17:40:00,2,50000,0,0.00,2,2,0,2,50000,50000,0,50000,0,0,0,0,0.00,0.00,0.00,0.00
2013-09-15 17:50:00,2,50000,0,0.00,2,2,0,2,50000,50000,0,50000,0,0,0,0,0.00,0.00,0.00,0.00
2013-09-15 18:00:00,2,50000,0,0.00,2,2,0,2,50000,50000,0,50000,0,0,0,0,0.00,0.00,0.00,0.00
2013-09-15 18:10:00,2,50000,0,0.00,2,2,0,2,50000,50000,0,50000,0,0,0,0,0.00,0.00,0.00,0.00
2013-09-15 18:20:00,2,50000,0,0.00,2,2,0,2,50000,50000,0,50000,0,0,0,0,0.00,0.00,0.00,0.00
2013-09-15 18:30:00,2,50000,0,0.00,2,2,0,2,50000,50000,0,50000,0,0,0,0,0.00,0.00,0.00,0.00
2013-09-15 18:40:00,2,50000,0,0.00,2,2,0,2,50000,50000,0,50000,0,0,0,0,0.00,0.00,0.00,0.00
2013-09-15 18:50:00,2,50000,0,0.00,2,2,0,2,50000,50000,0,50000,0,0,0,0,0.00,0.00,0.00,0.00
2013-09-15 19:00:00,2,50000,0,0.00,2,2,0,2,50000,50000,0,50000,0,0,0,0,0.00,0.00,0.00,0.00
2013-09-15 19:10:00,2,50000,0,0.00,2,2,0,2,50000,50000,0,50000,0,0,0,0,0.00,0.00,0.00,0.00
2013-09-15 19:20:00,2,50000,0,0.00,2,2,0,2,50000,50000,0,50000,0,0,0,0,0.00,0.00,0.00,0.00
2013-09-15 19:30:00,2,50000,0,0.00,2,2,0,2,50000,50000,0,50000,0,0,0,0,0.00,0.00,0.00,0.00
2013-09-15 19:40:00,2,50000,0,0.00,2,2,0,2,50000,50000,0,50000,0,0,0,0,0.00,0.00,0.00,0.00
2013-09-15 19:50:00,2,50000,0,0.00,2,2,0,2,50000,50000,0,50000,0,0,0,0,0.00,0.00,0.00,0.00
2013-09-15 20:00:00,2,50000,0,0.00,2,2,0,2,50000,50000,0,50000,0,0,0,0,0.00,0.00,0.00,0.00
2013-09-15 20:10:00,2,50000,0,0.00,2,2,0,2,50000,50000,0,50000,0,0,0,0,0.00,0.00,0.00,0.00
2013-09-15 20:20:00,2,48706,0,0.00,2,2,0,2,44582,50000,2027,50000,0,0,0,0,0.00,0.00,0.00,0.00
2013-09-15 20:30:00,2,32033,16,0.00,2,2,0,2,9966,47098,13652,34799,0,41,20,0,0.00,0.00,0.00,0.00
2013-09-15 20:40:00,2,26001,29,0.12,2,2,0,2,3468,50000,16456,25290,0,71,31,20,0.00,0.70,0.22,0.00
2013-09-15 20:50:00,2,8455,72,0.43,2,2,0,2,2785,25470,6732,5720,71,77,2,71,0.00,1.20,0.51,0.10
2013-09-15 21:00:00,2,7579,71,0.49,2,2,0,2,2446,18205,5062,6900,71,71,0,71,0.00,1.65,0.58,0.20
2013-09-15 21:10:00,2,8613,71,0.18,2,2,0,2,3535,13943,3285,8398,71,71,0,71,0.00,1.30,0.38,0.03
2013-09-15 21:20:00,2,2411,71,1.38,2,2,0,2,1004,3136,657,2642,71,71,0,71,0.40,2.20,0.60,1.27
2013-09-15 21:30:00,2,1729,71,2.49,2,2,0,2,1062,2115,367,1890,71,71,0,71,1.35,5.45,1.22,2.02
2013-09-15 21:40:00,2,2215,71,2.04,2,2,0,2,1238,4306,954,1981,71,71,0,71,0.95,3.65,0.92,1.85
2013-09-15 21:50:00,2,4418,71,0.57,2,2,0,2,2232,9404,2539,3358,71,71,0,71,0.05,1.35,0.40,0.45
2013-09-15 22:00:00,2,11032,64,0.11,2,2,0,2,4144,21492,5433,9186,0,77,22,71,0.00,0.60,0.19,0.03
2013-09-15 22:10:00,2,33603,23,0.04,2,2,0,2,5883,50000,17794,42480,0,77,35,0,0.00,0.15,0.06,0.00
2013-09-15 22:20:00,2,26496,36,0.55,2,2,0,2,1638,50000,22433,25755,0,71,36,36,0.00,2.40,0.82,0.03
2013-09-15 22:30:00,2,21210,21,0.00,2,2,0,2,7897,43466,11963,16304,0,71,33,0,0.00,0.00,0.00,0.00
2013-09-15 22:40:00,2,43504,0,0.00,2,2,0,2,16794,50000,11537,50000,0,0,0,0,0.00,0.00,0.00,0.00
2013-09-15 22:50:00,2,23334,8,0.00,2,2,0,2,9574,46273,12241,20664,0,41,16,0,0.00,0.00,0.00,0.00
2013-09-15 23:00:00,2,27465,25,0.08,2,2,0,2,1823,50000,15658,28509,0,41,20,41,0.00,0.80,0.24,0.00
2013-09-15 23:10:00,2,4647,71,0.73,2,2,0,2,1823,9560,2721,3998,71,71,0,71,0.00,2.55,0.79,0.53
2013-09-15 23:20:00,2,10282,53,0.05,2,2,0,2,3969,30126,7387,7390,0,77,30,71,0.00,0.15,0.04,0.05
2013-09-15 23:30:00,2,4159,71,1.11,2,2,0,2,2052,12011,2838,2950,71,71,0,71,0.00,2.20,0.83,1.00
2013-09-15 23:40:00,2,13876,36,0.16,2,2,0,2,3802,34783,9486,14330,0,71,36,36,0.00,0.55,0.23,0.00
2013-09-15 23:50:00,2,3342,71,1.20,2,2,0,2,1398,6375,1340,3218,71,71,0,71,0.05,3.30,0.83,1.05
